Reflectivity
11 2 9 -19 15 -2 -20 2 -12 2 0 -20 -20 -20 -20 -20 -20 -20 -20 -20 7 12 9 12 5 -20 1 -20 -20 -20 -20 -20 -20 -20 -20 -20 -12 -20 -20 -20 -20 -20 -20
13 8 15 -16 -9 -17 4 4 -20 -20 -20 -20 -20 -20 -20 -20 -20 -20 -20 2 15 -20 9 9 -5 -20 -20 -20 -20 -20 -20 -20 -20 -20 -20 -20 -20 -4 -20 -20 -20 -20 -20
3 8 -17 8 2 -17 4 -16 -20 -20 -20 -20 -20 -17 -20 -19 -20 -20 -20 0 -20 -20 6 -20 -20 -20 -20 -20 -20 -20 -20 -20 -20 -20 -20 -20 -20 -20 -17 -20 -20 -20 -20
5 -3 12 -0 -20 -20 -12 -20 -20 -20 -2 9 7 11 -20 -20 -20 10 0 -20 -20 -20 -20 -20 -20 -20 -20 -20 -20 -20 -20 -20 -20 -20 -20 -20 -20 2 -20 -20 -20 -20 -20
-7 5 1 -15 -20 -20 -19 1 -20 -11 -20 -18 -20 -20 -20 -20 -20 -3 -20 -20 -20 -20 -20 -20 -20 -20 -20 -20 -20 -20 -20 -20 -20 -20 -20 -20 -20 -20 -20 -20 -20 -20 -20
-20 -20 -20 0 -20 -20 -19 -7 -20 -20 -20 -20 -20 -20 -20 -20 -20 -20 -20 -20 -20 -20 -20 -20 -20 -20 -20 -20 -20 -20 -20 -20 -20 -20 -20 -20 -20 -20 -8 -20 -20 -20 -20
-2 -20 -20 -20 -20 -20 -20 -20 -20 -20 -20 -20 -20 -20 -20 -20 -20 -20 -20 -20 -20 -20 -20 -20 -20 -20 -20 -20 -20 -20 -20 -20 -20 -20 -20 -20 -20 -14 -20 -20 -20 -20 -20
-20 -20 -20 -20 -20 -20 -20 -20 -20 -20 -20 -20 -20 -20 -20 -20 -20 -20 -20 -20 -20 -20 -20 -20 -20 -20 -20 -20 -20 -20 -20 -20 -20 -20 -20 -20 -20 -20 -20 -16 -20 -20 -16
-20 -20 -20 -20 -20 -20 -20 -20 -20 -20 -20 -20 -20 -20 -20 -20 -20 -20 -20 -20 -20 -20 -20 -20 -20 -20 -20 -20 -20 -20 -20 -20 -20 -20 -20 -20 -20 -20 -20 -20 5 -7 -20
-20 -20 -20 -20 -20 -20 -20 -20 -20 -20 -20 -20 -20 -20 -20 -20 -20 -20 -16 1 -20 -20 -20 -20 -20 -20 -20 -20 -20 -20 -20 -20 -20 -20 -20 -20 -20 -20 -20 -20 -20 -20 12
-20 -20 -20 -20 -20 -20 -20 -20 -20 -20 -20 -20 -20 -20 -20 -20 -20 -20 -20 7 -3 -20 -20 -20 -20 -20 -20 -20 -20 -20 -20 -20 -20 -20 -20 -20 -20 -20 -20 -20 -20 -20 -20
-20 -20 -20 -20 -20 -20 -5 -12 -11 -19 -20 -20 -19 -20 -20 -16 -20 -20 -20 -20 -20 -20 -20 -20 -20 -20 -20 -20 -20 -20 -20 -20 -20 -20 -20 -20 -20 -20 -20 -20 -20 -20 -20
-20 -20 -20 -20 -16 17 10 7 -20 -20 -20 -20 -20 -20 -20 -20 -20 -20 -20 -20 -20 -20 -20 -20 -20 -20 -20 -20 -20 -20 -20 -20 -20 -20 -20 -20 -20 -20 -20 -20 -20 -20 -20
-20 -20 -20 -13 13 18 22 -20 -20 -20 -20 -20 -20 -20 -20 -20 -20 -20 -20 -20 -20 -20 -20 -20 -20 -20 -20 -20 -20 -20 -20 -20 -20 -20 -20 -20 -20 -20 -20 -20 -20 -20 -20
-20 -20 -10 19 24 24 -20 -20 -20 -20 -20 -20 -20 -20 -20 -20 -20 -20 -20 -20 -20 -20 -20 -20 -20 -20 -20 -20 -20 -20 -20 -20 -20 -20 -20 -20 -20 -20 -20 -20 -20 -20 -20
-20 -0 17 26 21 -16 -13 -20 -20 -20 -20 -20 -20 -20 -20 -20 -20 -20 -20 -20 -20 -20 -20 -20 -20 -20 -20 -20 -20 -20 -20 -20 -20 -20 -20 -20 -20 -20 -20 -20 -20 -20 -20
14 18 17 32 -20 -20 -20 -20 -20 -20 -20 -20 -20 -20 -20 -20 -20 -20 -20 -20 -20 -20 -20 -20 -20 -20 -20 -20 -20 -20 -20 -20 -20 -20 -20 -20 -20 -20 -20 -20 -20 -20 -20
4 6 20 -20 -20 -20 -20 -20 -20 -20 -20 -20 -20 -20 -20 -20 -20 -20 -20 -20 -20 -20 -20 -20 -20 -20 -20 -20 -20 -20 -20 -20 -20 -20 -20 -20 -20 -20 -20 -20 -20 -20 -20
-10 -20 -20 -20 -20 -20 -20 -20 -20 -20 -20 -20 -20 -20 -20 -20 -20 -20 -20 -20 -20 -20 -20 -20 -20 -20 -20 -20 -20 -20 -20 -20 -20 -20 -20 -20 -20 -20 -20 -20 -20 -20 -20
-17 -19 -20 -20 -20 -20 -20 -20 -20 -20 -20 -20 -20 -20 -20 -20 -20 -20 -20 -20 -20 -20 -20 -20 -20 -20 -20 -20 -20 -20 -20 -20 -20 -20 -20 -20 -20 -20 -20 -20 -20 -20 -20
17 -20 -20 -20 -20 -20 -20 -20 -20 -20 -20 -20 -20 -20 -20 -20 -20 -20 -20 -20 -20 -20 -20 -20 -20 -20 -20 -20 -20 -20 -20 -20 -20 -20 -20 -20 -20 -20 -20 -20 -20 -20 -20
-3 -20 -20 -20 -20 -20 -20 -20 -20 -20 -20 -20 -20 -20 -20 -20 -20 -20 -20 -20 -20 -20 -20 -20 -20 -20 -20 -20 -20 -20 -13 -20 -20 -20 -20 -20 -20 -20 -20 -20 -20 -20 -20
-20 -20 -20 -20 -20 -20 -20 -20 -20 -20 -20 -20 -20 -20 -20 -20 -20 -20 -20 -20 -20 -20 -20 -20 -20 -20 -20 -20 -20 -20 1 -0 -19 -20 -20 -20 -20 -20 -20 -20 -20 -20 -20
-20 -20 -20 -20 -20 -20 -20 -20 -20 -20 -20 -20 -20 -20 -20 -20 -20 -20 -20 -20 -20 -20 -20 -20 -20 -20 -20 -20 -20 -20 -19 -14 7 3 -20 -20 -20 -20 -20 -20 -20 -20 -20
-20 -20 -20 -20 -20 -20 -20 -20 -20 -20 -20 -20 -20 -20 -20 -20 -20 -20 -20 -20 -20 -20 -20 -20 -20 -20 -20 -20 -20 -20 -20 -20 -20 -20 -19 -20 -20 -20 -20 -20 -20 -20 -20
-20 -20 -20 -20 -20 -20 -20 -20 -20 -20 -20 -20 -20 -20 -20 -20 -20 -20 -20 -20 -20 -20 -20 -20 -20 -20 -20 -20 -20 -20 -20 -7 7 12 -16 -20 -20 -20 -20 -20 -20 -20 -20
Wind_Speed
8 10 15 16 15 15 15 14 15 12 12 13 13 13 13 13 13 13 14 13 14 15 16 16 16 17 17 17 17 18 18 19 19 18 16 13 11 5 4 7 10 9 10
11 10 14 16 15 14 14 14 13 12 12 12 13 12 12 12 12 13 13 13 13 15 15 15 15 17 17 18 18 18 19 19 20 20 18 14 12 8 2 6 7 6 8
10 10 11 15 15 15 14 14 13 12 12 12 11 10 12 12 12 12 12 13 15 15 14 15 16 17 17 18 20 20 20 21 21 21 21 8 7 11 3 3 5 7 8
10 8 10 17 16 15 14 13 12 13 11 12 11 12 13 12 11 12 13 15 15 15 16 15 15 16 17 18 19 20 20 21 23 24 12 12 13 7 5 4 2 6 7
12 10 12 16 15 14 12 13 13 11 11 11 12 11 11 12 11 13 14 14 14 15 15 16 15 16 17 17 18 18 20 21 22 18 13 13 12 5 4 4 3 6 5
11 10 12 14 14 15 13 12 10 9 11 10 10 10 10 11 12 12 12 13 14 15 15 15 15 16 16 17 18 19 19 20 20 9 10 13 11 8 6 4 3 3 4
11 9 10 13 15 14 12 11 9 10 9 9 10 9 9 9 8 7 9 11 13 14 14 15 16 16 17 16 16 16 18 20 11 8 10 9 8 6 7 7 6 3 4
12 9 9 14 15 13 11 9 9 8 7 6 6 6 5 5 5 6 5 7 11 12 14 13 14 16 16 15 15 17 19 18 10 7 7 6 8 8 7 5 5 4 4
11 10 8 7 10 12 11 9 7 5 4 3 1 2 3 3 5 4 4 5 8 8 10 9 12 14 16 16 17 17 19 18 9 7 8 3 9 10 10 9 6 3 2
10 9 8 7 7 7 4 6 5 5 5 5 2 4 12 5 8 9 12 6 6 7 10 12 10 14 16 13 16 20 10 15 7 7 2 4 7 9 10 11 12 12 8
8 8 6 5 5 5 5 5 6 7 8 6 2 5 9 4 7 10 13 8 9 11 12 11 13 18 16 11 15 16 15 3 5 5 4 13 17 13 13 10 13 13 15
13 12 8 7 7 7 5 4 5 6 4 1 1 6 5 6 8 11 14 19 21 21 13 14 16 16 12 5 5 10 3 5 4 4 4 19 18 16 14 14 13 15 15
14 11 10 10 11 10 6 5 4 3 3 4 6 5 5 5 5 6 5 6 6 14 4 7 6 5 7 5 5 5 5 5 3 3 5 17 18 17 15 13 13 14 16
15 13 12 10 7 7 4 4 4 4 4 3 4 6 6 4 5 5 5 7 6 4 6 5 4 7 7 7 7 6 7 5 3 3 5 16 16 17 15 13 14 14 15
14 11 10 7 5 6 5 4 4 5 5 4 5 8 5 5 5 5 6 6 5 4 4 5 7 5 6 6 7 7 7 7 6 3 3 13 13 16 17 13 13 12 13
10 9 5 2 7 5 3 5 2 4 4 4 5 5 6 5 4 4 5 6 5 4 5 5 5 4 4 5 6 7 9 7 5 6 4 5 11 15 16 13 13 14 9
7 4 2 6 6 2 3 4 2 2 3 3 5 6 6 6 4 5 5 5 4 5 7 6 5 5 5 6 6 8 7 7 6 7 6 5 5 5 10 12 15 12 12
4 2 5 4 8 8 5 5 5 4 3 3 4 3 4 5 4 4 4 5 5 5 5 4 4 4 5 5 5 8 5 5 7 8 6 3 2 2 6 12 13 13 14
4 4 3 7 8 9 8 6 6 6 4 3 4 2 4 4 3 3 4 4 5 5 4 5 6 5 5 5 5 5 5 6 6 7 9 5 3 4 1 4 11 14 15
4 4 8 7 8 8 7 6 6 6 5 4 3 5 6 4 5 4 4 5 5 4 5 6 7 5 4 5 8 8 5 5 5 4 5 3 4 5 5 2 4 5 15
3 8 7 8 7 6 5 4 5 4 4 4 5 7 7 6 6 5 4 6 5 5 6 7 4 6 5 5 4 8 4 7 6 4 5 5 5 4 5 5 4 3 4
7 7 8 8 8 6 4 3 3 2 3 2 4 6 8 7 7 6 5 5 6 5 6 6 6 4 3 5 6 7 5 7 4 9 5 4 6 4 5 6 5 6 5
8 7 8 7 7 6 5 3 4 4 5 5 4 4 5 8 7 6 6 5 6 5 5 5 5 6 5 6 6 3 6 2 7 3 6 3 6 4 4 5 6 5 5
6 7 7 7 7 5 6 4 5 2 3 3 2 3 5 8 7 5 6 6 6 4 6 4 6 4 4 7 4 6 3 3 5 5 2 4 4 6 6 4 5 5 5
7 5 6 7 7 5 6 5 4 4 3 3 3 6 6 6 7 6 5 6 6 4 5 6 6 6 3 5 4 3 3 4 3 2 7 4 3 3 4 4 5 5 6
8 8 6 7 4 7 6 7 6 5 5 5 5 4 5 4 4 6 5 6 6 5 5 5 5 7 6 4 3 4 3 5 4 3 3 4 6 3 4 5 5 5 5
Wind_Direction
117 124 111 104 103 95 94 89 83 78 77 70 65 59 55 51 47 41 35 28 35 24 20 15 12 11 11 6 3 0 356 353 348 344 338 329 318 339 16 41 63 63 51
124 116 113 110 106 105 103 99 90 83 77 70 62 56 53 48 41 34 29 32 30 20 13 8 7 6 6 3 358 357 356 349 344 338 334 330 314 290 12 43 52 63 58
115 117 115 114 103 98 97 97 88 81 67 63 59 56 48 41 33 33 37 27 16 13 7 3 4 4 0 358 355 353 349 345 341 339 336 327 303 259 145 67 42 57 54
123 104 108 109 106 103 96 89 82 71 63 62 51 44 40 38 32 35 25 22 15 9 4 1 2 359 357 354 351 348 344 342 339 337 338 324 328 171 158 140 79 59 61
98 108 115 112 110 103 92 85 77 70 63 54 48 40 37 33 30 33 22 23 14 5 3 0 359 354 351 346 344 344 341 338 336 339 330 331 317 208 174 150 129 89 68
105 110 110 110 102 97 96 91 91 85 74 62 51 39 38 36 33 33 27 20 17 6 2 359 355 349 345 341 339 341 341 340 334 322 328 329 332 75 61 59 85 92 83
111 103 97 99 97 94 95 96 88 79 68 62 46 36 34 35 33 37 36 26 15 5 358 355 353 347 340 336 337 340 337 339 338 327 321 315 313 52 63 58 50 40 74
114 100 99 103 101 99 99 94 86 80 78 65 43 35 29 19 13 8 46 12 9 11 359 356 348 348 346 341 337 335 328 336 330 317 328 325 8 10 20 52 48 51 63
118 120 117 99 115 112 106 110 123 128 132 124 87 348 316 316 302 299 320 326 350 354 345 339 329 329 329 333 331 314 312 330 348 331 337 339 11 5 1 350 324 313 339
141 130 121 134 129 123 127 145 169 180 187 200 195 347 354 346 332 315 335 292 303 316 311 303 307 302 322 326 329 350 310 333 337 331 6 290 359 349 346 341 327 311 276
135 105 111 120 111 139 164 199 208 219 222 229 255 348 17 358 2 345 358 326 304 296 281 307 330 344 21 7 345 329 339 316 335 317 324 307 319 329 324 326 322 306 297
92 78 70 51 38 26 21 349 239 243 244 96 197 39 25 15 9 357 353 358 348 342 2 0 359 349 349 334 334 312 293 294 302 299 307 326 321 318 325 325 319 309 290
79 68 55 40 29 19 344 343 348 15 74 72 64 53 38 21 5 4 354 348 340 332 3 10 353 348 329 324 317 298 282 275 268 287 302 310 311 315 309 309 315 305 293
71 58 47 35 20 344 329 339 333 30 32 75 76 55 46 31 14 354 353 345 335 340 2 349 338 328 316 327 320 309 308 300 271 267 284 291 300 303 306 306 301 310 299
70 57 46 25 353 287 340 328 28 25 22 16 46 56 46 28 17 5 347 333 336 339 350 333 335 317 338 340 329 328 319 308 314 307 292 296 312 309 303 308 291 303 304
73 58 40 310 276 323 12 9 48 42 29 48 69 69 50 38 24 6 344 328 334 336 324 330 306 335 342 331 329 317 312 311 308 307 298 288 297 296 295 310 324 302 309
77 108 214 276 288 356 329 314 41 24 39 55 89 64 52 45 19 7 335 320 314 328 330 327 338 346 339 328 312 308 304 306 308 310 297 280 309 343 332 314 316 315 306
121 171 257 34 19 355 353 32 32 0 37 42 81 69 47 53 24 10 330 314 309 330 326 327 330 320 309 296 291 296 298 294 301 303 287 274 249 277 306 300 305 295 297
198 234 106 51 28 11 10 27 19 4 27 23 76 41 17 49 357 5 314 314 325 332 336 331 326 309 302 301 299 294 297 303 308 317 308 286 307 355 319 339 359 344 323
268 132 78 62 40 23 12 12 10 2 349 20 29 36 27 337 356 342 335 317 344 350 336 324 317 314 283 293 312 312 302 301 309 326 343 8 0 0 329 5 351 339 353
120 73 79 71 44 41 9 9 8 342 342 4 12 37 4 2 348 347 347 2 354 343 321 327 296 320 323 326 335 320 316 288 322 336 333 334 339 338 343 335 328 311 316
91 83 75 76 59 43 29 356 5 341 324 339 16 6 3 352 355 15 29 0 342 343 336 326 331 328 303 333 326 317 325 318 338 322 312 322 329 332 335 321 323 317 330
88 86 87 88 77 60 39 14 358 358 358 3 355 346 349 354 357 38 18 358 350 341 326 326 330 341 322 326 318 282 326 292 314 307 297 343 329 334 331 327 329 347 354
104 82 96 93 86 70 43 41 43 16 341 304 321 339 346 347 350 10 9 358 343 325 329 310 332 309 325 318 310 310 281 290 316 309 330 307 331 332 327 333 333 329 325
100 100 103 96 86 70 55 55 40 10 327 311 339 359 336 331 339 343 354 339 327 320 306 312 320 317 296 300 312 311 319 322 293 256 306 308 303 311 305 312 293 294 298
80 61 64 91 76 68 57 35 35 14 349 358 334 331 321 316 320 325 329 320 317 310 304 301 299 306 296 301 283 287 275 288 279 271 271 287 284 284 287 290 288 276 273